#Datum;Uhrzeit;WR;Pac;DaySum;Status;WR;Pac;DaySum;Status;Pdc1;Udc;Temp;WR;Pac;DaySum;Status;Pdc1;Udc;Temp;WR;Pac;DaySum;Status;Pdc1;Udc;Temp;WR;Pac;DaySum;Status;Pdc1;Pdc2;Udc1;Udc2;Temp;WR;Pac;DaySum;Status;Pdc1;Pdc2;Udc1;Udc2;Temp;WR;Pac;DaySum;Status;Pdc1;Udc;Temp;WR;Pac;DaySum;Status;Pdc1;Udc;Temp;WR;Pac;DaySum;Status;Pdc1;Udc;Temp
30.12.17;23:55:00;1;566;17345;0;2;0;3;0;0;0;0;3;0;6;0;0;0;0;4;0;0;0;0;0;0;5;0;71;0;0;0;0;0;0;6;0;5;0;0;0;0;0;0;7;0;831;0;0;0;0;8;0;1201;0;0;0;0;9;0;887;0;0;0;0
30.12.17;23:50:00;1;942;17298;0;2;0;3;0;0;0;0;3;0;6;0;0;0;0;4;0;0;0;0;0;0;5;0;71;0;0;0;0;0;0;6;0;5;0;0;0;0;0;0;7;0;831;0;0;0;0;8;0;1201;0;0;0;0;9;0;887;0;0;0;0
30.12.17;23:45:00;1;591;17224;0;2;0;3;0;0;0;0;3;0;6;0;0;0;0;4;0;0;0;0;0;0;5;0;71;0;0;0;0;0;0;6;0;5;0;0;0;0;0;0;7;0;831;0;0;0;0;8;0;1201;0;0;0;0;9;0;887;0;0;0;0
30.12.17;23:40:00;1;455;17181;0;2;0;3;0;0;0;0;3;0;6;0;0;0;0;4;0;0;0;0;0;0;5;0;71;0;0;0;0;0;0;6;0;5;0;0;0;0;0;0;7;0;831;0;0;0;0;8;0;1201;0;0;0;0;9;0;887;0;0;0;0
30.12.17;23:35:00;1;850;17143;0;2;0;3;0;0;0;0;3;0;6;0;0;0;0;4;0;0;0;0;0;0;5;0;71;0;0;0;0;0;0;6;0;5;0;0;0;0;0;0;7;0;831;0;0;0;0;8;0;1201;0;0;0;0;9;0;887;0;0;0;0
30.12.17;23:30:00;1;474;17074;0;2;0;3;0;0;0;0;3;0;6;0;0;0;0;4;0;0;0;0;0;0;5;0;71;0;0;0;0;0;0;6;0;5;0;0;0;0;0;0;7;0;831;0;0;0;0;8;0;1201;0;0;0;0;9;0;887;0;0;0;0
30.12.17;23:25:00;1;475;17034;0;2;0;3;0;0;0;0;3;0;6;0;0;0;0;4;0;0;0;0;0;0;5;0;71;0;0;0;0;0;0;6;0;5;0;0;0;0;0;0;7;0;831;0;0;0;0;8;0;1201;0;0;0;0;9;0;887;0;0;0;0
30.12.17;23:20:00;1;477;16994;0;2;0;3;0;0;0;0;3;0;6;0;0;0;0;4;0;0;0;0;0;0;5;0;71;0;0;0;0;0;0;6;0;5;0;0;0;0;0;0;7;0;831;0;0;0;0;8;0;1201;0;0;0;0;9;0;887;0;0;0;0
30.12.17;23:15:00;1;838;16932;0;2;0;3;0;0;0;0;3;0;6;0;0;0;0;4;0;0;0;0;0;0;5;0;71;0;0;0;0;0;0;6;0;5;0;0;0;0;0;0;7;0;831;0;0;0;0;8;0;1201;0;0;0;0;9;0;887;0;0;0;0
30.12.17;23:10:00;1;486;16885;0;2;0;3;0;0;0;0;3;0;6;0;0;0;0;4;0;0;0;0;0;0;5;0;71;0;0;0;0;0;0;6;0;5;0;0;0;0;0;0;7;0;831;0;0;0;0;8;0;1201;0;0;0;0;9;0;887;0;0;0;0
30.12.17;23:05:00;1;511;16844;0;2;0;3;0;0;0;0;3;0;6;0;0;0;0;4;0;0;0;0;0;0;5;0;71;0;0;0;0;0;0;6;0;5;0;0;0;0;0;0;7;0;831;0;0;0;0;8;0;1201;0;0;0;0;9;0;887;0;0;0;0
30.12.17;23:00:00;1;934;16801;0;2;0;3;0;0;0;0;3;0;6;0;0;0;0;4;0;0;0;0;0;0;5;0;71;0;0;0;0;0;0;6;0;5;0;0;0;0;0;0;7;0;831;0;0;0;0;8;0;1201;0;0;0;0;9;0;887;0;0;0;0
30.12.17;22:55:00;1;1860;16728;0;2;0;3;0;0;0;0;3;0;6;0;0;0;0;4;0;0;0;0;0;0;5;0;71;2;0;0;0;0;0;6;0;5;2;0;0;0;0;0;7;0;831;0;0;0;0;8;0;1201;0;0;0;0;9;0;887;0;0;0;0
30.12.17;22:50:00;1;2962;16544;0;2;0;3;0;0;0;0;3;0;6;0;0;0;0;4;0;0;0;0;0;0;5;0;71;2;0;0;0;0;0;6;0;5;2;0;0;0;0;0;7;0;831;0;0;0;0;8;0;1201;0;0;0;0;9;0;887;0;0;0;0
30.12.17;22:45:00;1;1156;16352;0;2;0;3;0;0;0;0;3;0;6;0;0;0;0;4;0;0;0;0;0;0;5;0;71;2;0;0;0;0;0;6;0;5;2;0;0;0;0;0;7;0;831;0;0;0;0;8;0;1201;0;0;0;0;9;0;887;0;0;0;0
30.12.17;22:40:00;1;540;16282;0;2;0;3;0;0;0;0;3;0;6;0;0;0;0;4;0;0;0;0;0;0;5;0;71;2;0;0;0;0;0;6;0;5;2;0;0;0;0;0;7;0;831;0;0;0;0;8;0;1201;0;0;0;0;9;0;887;0;0;0;0
30.12.17;22:35:00;1;525;16237;0;2;0;3;0;0;0;0;3;0;6;0;0;0;0;4;0;0;0;0;0;0;5;0;71;2;0;0;0;0;0;6;0;5;2;0;0;0;0;0;7;0;831;0;0;0;0;8;0;1201;0;0;0;0;9;0;887;0;0;0;0
30.12.17;22:30:00;1;736;16193;0;2;0;3;0;0;0;0;3;0;6;0;0;0;0;4;0;0;0;0;0;0;5;0;71;2;0;0;0;0;0;6;0;5;2;0;0;0;0;0;7;0;831;0;0;0;0;8;0;1201;0;0;0;0;9;0;887;0;0;0;0
30.12.17;22:25:00;1;541;16118;0;2;0;3;0;0;0;0;3;0;6;0;0;0;0;4;0;0;0;0;0;0;5;0;71;2;0;0;0;0;0;6;0;5;2;0;0;0;0;0;7;0;831;0;0;0;0;8;0;1201;0;0;0;0;9;0;887;0;0;0;0
30.12.17;22:20:00;1;529;16072;0;2;0;3;0;0;0;0;3;0;6;0;0;0;0;4;0;0;0;0;0;0;5;0;71;2;0;0;0;0;0;6;0;5;2;0;0;0;0;0;7;0;831;0;0;0;0;8;0;1201;0;0;0;0;9;0;887;0;0;0;0
30.12.17;22:15:00;1;530;16028;0;2;0;3;0;0;0;0;3;0;6;0;0;0;0;4;0;0;0;0;0;0;5;0;71;2;0;0;0;0;0;6;0;5;2;0;0;0;0;0;7;0;831;0;0;0;0;8;0;1201;0;0;0;0;9;0;887;0;0;0;0
30.12.17;22:10:00;1;1169;15981;0;2;0;3;0;0;0;0;3;0;6;0;0;0;0;4;0;0;0;0;0;0;5;0;71;2;0;0;0;0;0;6;0;5;2;0;0;0;0;0;7;0;831;0;0;0;0;8;0;1201;0;0;0;0;9;0;887;0;0;0;0
30.12.17;22:05:00;1;548;15906;0;2;0;3;0;0;0;0;3;0;6;0;0;0;0;4;0;0;0;0;0;0;5;0;71;2;0;0;0;0;0;6;0;5;2;0;0;0;0;0;7;0;831;0;0;0;0;8;0;1201;0;0;0;0;9;0;887;0;0;0;0
30.12.17;22:00:00;1;515;15860;0;2;0;3;0;0;0;0;3;0;6;0;0;0;0;4;0;0;0;0;0;0;5;0;71;2;0;0;0;0;0;6;0;5;2;0;0;0;0;0;7;0;831;0;0;0;0;8;0;1201;0;0;0;0;9;0;887;0;0;0;0
30.12.17;21:55:00;1;883;15816;0;2;0;3;0;0;0;0;3;0;6;0;0;0;0;4;0;0;0;0;0;0;5;0;71;2;0;0;0;0;0;6;0;5;2;0;0;0;0;0;7;0;831;0;0;0;0;8;0;1201;0;0;0;0;9;0;887;0;0;0;0
30.12.17;21:50:00;1;476;15748;0;2;0;3;0;0;0;0;3;0;6;0;0;0;0;4;0;0;0;0;0;0;5;0;71;2;0;0;0;0;0;6;0;5;2;0;0;0;0;0;7;0;831;0;0;0;0;8;0;1201;0;0;0;0;9;0;887;0;0;0;0
30.12.17;21:45:00;1;471;15709;0;2;0;3;0;0;0;0;3;0;6;0;0;0;0;4;0;0;0;0;0;0;5;0;71;2;0;0;0;0;0;6;0;5;2;0;0;0;0;0;7;0;831;0;0;0;0;8;0;1201;0;0;0;0;9;0;887;0;0;0;0
30.12.17;21:40:00;1;662;15669;0;2;0;3;0;0;0;0;3;0;6;0;0;0;0;4;0;0;0;0;0;0;5;0;71;2;0;0;0;0;0;6;0;5;2;0;0;0;0;0;7;0;831;0;0;0;0;8;0;1201;0;0;0;0;9;0;887;0;0;0;0
30.12.17;21:35:00;1;476;15598;0;2;0;3;0;0;0;0;3;0;6;0;0;0;0;4;0;0;0;0;0;0;5;0;71;2;0;0;0;0;0;6;0;5;2;0;0;0;0;0;7;0;831;0;0;0;0;8;0;1201;0;0;0;0;9;0;887;0;0;0;0
30.12.17;21:30:00;1;487;15558;0;2;0;3;0;0;0;0;3;0;6;0;0;0;0;4;0;0;0;0;0;0;5;0;71;2;0;0;0;0;0;6;0;5;2;0;0;0;0;0;7;0;831;0;0;0;0;8;0;1201;0;0;0;0;9;0;887;0;0;0;0
30.12.17;21:25:00;1;646;15518;0;2;0;3;0;0;0;0;3;0;6;0;0;0;0;4;0;0;0;0;0;0;5;0;71;2;0;0;0;0;0;6;0;5;2;0;0;0;0;0;7;0;831;0;0;0;0;8;0;1201;0;0;0;0;9;0;887;0;0;0;0
30.12.17;21:20:00;1;679;15451;0;2;0;3;0;0;0;0;3;0;6;0;0;0;0;4;0;0;0;0;0;0;5;0;71;2;0;0;0;0;0;6;0;5;2;0;0;0;0;0;7;0;831;0;0;0;0;8;0;1201;0;0;0;0;9;0;887;0;0;0;0
30.12.17;21:15:00;1;553;15409;0;2;0;3;0;0;0;0;3;0;6;0;0;0;0;4;0;0;0;0;0;0;5;0;71;2;0;0;0;0;0;6;0;5;2;0;0;0;0;0;7;0;831;0;0;0;0;8;0;1201;0;0;0;0;9;0;887;0;0;0;0
30.12.17;21:10:00;1;789;15361;0;2;0;3;0;0;0;0;3;0;6;0;0;0;0;4;0;0;0;0;0;0;5;0;71;2;0;0;0;0;0;6;0;5;2;0;0;0;0;0;7;0;831;0;0;0;0;8;0;1201;0;0;0;0;9;0;887;0;0;0;0
30.12.17;21:05:00;1;1224;15292;0;2;0;3;0;0;0;0;3;0;6;0;0;0;0;4;0;0;0;0;0;0;5;0;71;2;0;0;0;0;0;6;0;5;2;0;0;0;0;0;7;0;831;0;0;0;0;8;0;1201;0;0;0;0;9;0;887;0;0;0;0
30.12.17;21:00:00;1;892;15196;0;2;0;3;0;0;0;0;3;0;6;0;0;0;0;4;0;0;0;0;0;0;5;0;71;2;0;0;0;0;0;6;0;5;2;0;0;0;0;0;7;0;831;0;0;0;0;8;0;1201;0;0;0;0;9;0;887;0;0;0;0
30.12.17;20:55:00;1;3407;15084;0;2;0;3;0;0;0;0;3;0;6;0;0;0;0;4;0;0;0;0;0;0;5;0;71;2;0;0;0;0;0;6;0;5;2;0;0;0;0;0;7;0;831;0;0;0;0;8;0;1201;0;0;0;0;9;0;887;0;0;0;0
30.12.17;20:50:00;1;1414;14840;0;2;0;3;0;0;0;0;3;0;6;0;0;0;0;4;0;0;0;0;0;0;5;0;71;2;0;0;0;0;0;6;0;5;2;0;0;0;0;0;7;0;831;0;0;0;0;8;0;1201;0;0;0;0;9;0;887;0;0;0;0
30.12.17;20:45:00;1;1497;14707;0;2;0;3;0;0;0;0;3;0;6;0;0;0;0;4;0;0;0;0;0;0;5;0;71;2;0;0;0;0;0;6;0;5;2;0;0;0;0;0;7;0;831;0;0;0;0;8;0;1201;0;0;0;0;9;0;887;0;0;0;0
30.12.17;20:40:00;1;2746;14529;0;2;0;3;0;0;0;0;3;0;6;0;0;0;0;4;0;0;0;0;0;0;5;0;71;2;0;0;0;0;0;6;0;5;2;0;0;0;0;0;7;0;831;0;0;0;0;8;0;1201;0;0;0;0;9;0;887;0;0;0;0
30.12.17;20:35:00;1;3103;14359;0;2;0;3;0;0;0;0;3;0;6;0;0;0;0;4;0;0;0;0;0;0;5;0;71;2;0;0;0;0;0;6;0;5;2;0;0;0;0;0;7;0;831;0;0;0;0;8;0;1201;0;0;0;0;9;0;887;0;0;0;0
30.12.17;20:30:00;1;3259;14094;0;2;0;3;0;0;0;0;3;0;6;0;0;0;0;4;0;0;0;0;0;0;5;0;71;2;0;0;0;0;0;6;0;5;2;0;0;0;0;0;7;0;831;0;0;0;0;8;0;1201;0;0;0;0;9;0;887;0;0;0;0
30.12.17;20:25:00;1;3391;13850;0;2;0;3;0;0;0;0;3;0;6;0;0;0;0;4;0;0;0;0;0;0;5;0;71;2;0;0;0;0;0;6;0;5;2;0;0;0;0;0;7;0;831;0;0;0;0;8;0;1201;0;0;0;0;9;0;887;0;0;0;0
30.12.17;20:20:00;1;4827;13542;0;2;0;3;0;0;0;0;3;0;6;0;0;0;0;4;0;0;0;0;0;0;5;0;71;2;0;0;0;0;0;6;0;5;2;0;0;0;0;0;7;0;831;0;0;0;0;8;0;1201;0;0;0;0;9;0;887;0;0;0;0
30.12.17;20:15:00;1;2926;13058;0;2;0;3;0;0;0;0;3;0;6;0;0;0;0;4;0;0;0;0;0;0;5;0;71;2;0;0;0;0;0;6;0;5;2;0;0;0;0;0;7;0;831;0;0;0;0;8;0;1201;0;0;0;0;9;0;887;0;0;0;0
30.12.17;20:10:00;1;526;12862;0;2;0;3;0;0;0;0;3;0;6;0;0;0;0;4;0;0;0;0;0;0;5;0;71;2;0;0;0;0;0;6;0;5;2;0;0;0;0;0;7;0;831;0;0;0;0;8;0;1201;0;0;0;0;9;0;887;0;0;0;0
30.12.17;20:05:00;1;509;12817;0;2;0;3;0;0;0;0;3;0;6;0;0;0;0;4;0;0;0;0;0;0;5;0;71;2;0;0;0;0;0;6;0;5;2;0;0;0;0;0;7;0;831;0;0;0;0;8;0;1201;0;0;0;0;9;0;887;0;0;0;0
30.12.17;20:00:00;1;959;12775;0;2;0;3;0;0;0;0;3;0;6;0;0;0;0;4;0;0;0;0;0;0;5;0;71;2;0;0;0;0;0;6;0;5;2;0;0;0;0;0;7;0;831;0;0;0;0;8;0;1201;0;0;0;0;9;0;887;0;0;0;0
30.12.17;19:55:00;1;557;12698;0;2;0;3;0;0;0;0;3;0;6;0;0;0;0;4;0;0;0;0;0;0;5;0;71;2;0;0;0;0;0;6;0;5;2;0;0;0;0;0;7;0;831;0;0;0;0;8;0;1201;0;0;0;0;9;0;887;0;0;0;0
30.12.17;19:50:00;1;572;12652;0;2;0;3;0;0;0;0;3;0;6;0;0;0;0;4;0;0;0;0;0;0;5;0;71;2;0;0;0;0;0;6;0;5;2;0;0;0;0;0;7;0;831;0;0;0;0;8;0;1201;0;0;0;0;9;0;887;0;0;0;0
30.12.17;19:45:00;1;1331;12604;0;2;0;3;0;0;0;0;3;0;6;0;0;0;0;4;0;0;0;0;0;0;5;0;71;2;0;0;0;0;0;6;0;5;2;0;0;0;0;0;7;0;831;0;0;0;0;8;0;1201;0;0;0;0;9;0;887;0;0;0;0
30.12.17;19:40:00;1;604;12526;0;2;0;3;0;0;0;0;3;0;6;0;0;0;0;4;0;0;0;0;0;0;5;0;71;2;0;0;0;0;0;6;0;5;2;0;0;0;0;0;7;0;831;0;0;0;0;8;0;1201;0;0;0;0;9;0;887;0;0;0;0
30.12.17;19:35:00;1;526;12479;0;2;0;3;0;0;0;0;3;0;6;0;0;0;0;4;0;0;0;0;0;0;5;0;71;2;0;0;0;0;0;6;0;5;2;0;0;0;0;0;7;0;831;0;0;0;0;8;0;1201;0;0;0;0;9;0;887;0;0;0;0
30.12.17;19:30:00;1;709;12435;0;2;0;3;0;0;0;0;3;0;6;0;0;0;0;4;0;0;0;0;0;0;5;0;71;2;0;0;0;0;0;6;0;5;2;0;0;0;0;0;7;0;831;0;0;0;0;8;0;1201;0;0;0;0;9;0;887;0;0;0;0
30.12.17;19:25:00;1;582;12363;0;2;0;3;0;0;0;0;3;0;6;0;0;0;0;4;0;0;0;0;0;0;5;0;71;2;0;0;0;0;0;6;0;5;2;0;0;0;0;0;7;0;831;0;0;0;0;8;0;1201;0;0;0;0;9;0;887;0;0;0;0
30.12.17;19:20:00;1;1135;12306;0;2;0;3;0;0;0;0;3;0;6;0;0;0;0;4;0;0;0;0;0;0;5;0;71;2;0;0;0;0;0;6;0;5;2;0;0;0;0;0;7;0;831;0;0;0;0;8;0;1201;0;0;0;0;9;0;887;0;0;0;0
30.12.17;19:15:00;1;615;12220;0;2;0;3;0;0;0;0;3;0;6;0;0;0;0;4;0;0;0;0;0;0;5;0;71;2;0;0;0;0;0;6;0;5;2;0;0;0;0;0;7;0;831;0;0;0;0;8;0;1201;0;0;0;0;9;0;887;0;0;0;0
30.12.17;19:10:00;1;1197;12163;0;2;0;3;0;0;0;0;3;0;6;0;0;0;0;4;0;0;0;0;0;0;5;0;71;2;0;0;0;0;0;6;0;5;2;0;0;0;0;0;7;0;831;0;0;0;0;8;0;1201;0;0;0;0;9;0;887;0;0;0;0
30.12.17;19:05:00;1;3102;12090;0;2;0;3;0;0;0;0;3;0;6;0;0;0;0;4;0;0;0;0;0;0;5;0;71;2;0;0;0;0;0;6;0;5;2;0;0;0;0;0;7;0;831;0;0;0;0;8;0;1201;0;0;0;0;9;0;887;0;0;0;0
30.12.17;19:00:00;1;526;11820;0;2;0;3;0;0;0;0;3;0;6;0;0;0;0;4;0;0;0;0;0;0;5;0;71;2;0;0;0;0;0;6;0;5;2;0;0;0;0;0;7;0;831;0;0;0;0;8;0;1201;0;0;0;0;9;0;887;0;0;0;0
30.12.17;18:55:00;1;885;11777;0;2;0;3;0;0;0;0;3;0;6;0;0;0;0;4;0;0;0;0;0;0;5;0;71;2;0;0;0;0;0;6;0;5;2;0;0;0;0;0;7;0;831;0;0;0;0;8;0;1201;0;0;0;0;9;0;887;0;0;0;0
30.12.17;18:50:00;1;471;11702;0;2;0;3;0;0;0;0;3;0;6;0;0;0;0;4;0;0;0;0;0;0;5;0;71;2;0;0;0;0;0;6;0;5;2;0;0;0;0;0;7;0;831;0;0;0;0;8;0;1201;0;0;0;0;9;0;887;0;0;0;0
30.12.17;18:45:00;1;462;11661;0;2;0;3;0;0;0;0;3;0;6;0;0;0;0;4;0;0;0;0;0;0;5;0;71;2;0;0;0;0;0;6;0;5;2;0;0;0;0;0;7;0;831;0;0;0;0;8;0;1201;0;0;0;0;9;0;887;0;0;0;0
30.12.17;18:40:00;1;662;11623;0;2;0;3;0;0;0;0;3;0;6;0;0;0;0;4;0;0;0;0;0;0;5;0;71;2;0;0;0;0;0;6;0;5;2;0;0;0;0;0;7;0;831;0;0;0;0;8;0;1201;0;0;0;0;9;0;887;0;0;0;0
30.12.17;18:35:00;1;588;11554;0;2;0;3;0;0;0;0;3;0;6;0;0;0;0;4;0;0;0;0;0;0;5;0;71;2;0;0;0;0;0;6;0;5;2;0;0;0;0;0;7;0;831;0;0;0;0;8;0;1201;0;0;0;0;9;0;887;0;0;0;0
30.12.17;18:30:00;1;592;11504;0;2;0;3;0;0;0;0;3;0;6;0;0;0;0;4;0;0;0;0;0;0;5;0;71;2;0;0;0;0;0;6;0;5;2;0;0;0;0;0;7;0;831;0;0;0;0;8;0;1201;0;0;0;0;9;0;887;0;0;0;0
30.12.17;18:25:00;1;773;11455;0;2;0;3;0;0;0;0;3;0;6;0;0;0;0;4;0;0;0;0;0;0;5;0;71;2;0;0;0;0;0;6;0;5;2;0;0;0;0;0;7;0;831;0;0;0;0;8;0;1201;0;0;0;0;9;0;887;0;0;0;0
30.12.17;18:20:00;1;610;11376;0;2;0;3;0;0;0;0;3;0;6;0;0;0;0;4;0;0;0;0;0;0;5;0;71;2;0;0;0;0;0;6;0;5;2;0;0;0;0;0;7;0;831;0;0;0;0;8;0;1201;0;0;0;0;9;0;887;0;0;0;0
30.12.17;18:15:00;1;560;11326;0;2;0;3;0;0;0;0;3;0;6;0;0;0;0;4;0;0;0;0;0;0;5;0;71;2;0;0;0;0;0;6;0;5;2;0;0;0;0;0;7;0;831;0;0;0;0;8;0;1201;0;0;0;0;9;0;887;0;0;0;0
30.12.17;18:10:00;1;587;11280;0;2;0;3;0;0;0;0;3;0;6;0;0;0;0;4;0;0;0;0;0;0;5;0;71;2;0;0;0;0;0;6;0;5;2;0;0;0;0;0;7;0;831;0;0;0;0;8;0;1201;0;0;0;0;9;0;887;0;0;0;0
30.12.17;18:05:00;1;961;11228;0;2;0;3;0;0;0;0;3;0;6;0;0;0;0;4;0;0;0;0;0;0;5;0;71;2;0;0;0;0;0;6;0;5;2;0;0;0;0;0;7;0;831;0;0;0;0;8;0;1201;0;0;0;0;9;0;887;0;0;0;0
30.12.17;18:00:00;1;547;11158;0;2;0;3;0;0;0;0;3;0;6;0;0;0;0;4;0;0;0;0;0;0;5;0;71;2;0;0;0;0;0;6;0;5;2;0;0;0;0;0;7;0;831;0;0;0;0;8;0;1201;0;0;0;0;9;0;887;0;0;0;0
30.12.17;17:55:00;1;605;11110;0;2;0;3;0;0;0;0;3;0;6;0;0;0;0;4;0;0;0;0;0;0;5;0;71;2;0;0;0;0;0;6;0;5;2;0;0;0;0;0;7;0;831;0;0;0;0;8;0;1201;0;0;0;0;9;0;887;0;0;0;0
30.12.17;17:50:00;1;1007;11063;0;2;0;3;0;0;0;0;3;0;6;0;0;0;0;4;0;0;0;0;0;0;5;0;71;2;0;0;0;0;0;6;0;5;2;0;0;0;0;0;7;0;831;0;0;0;0;8;0;1201;0;0;0;0;9;0;887;0;0;0;0
30.12.17;17:45:00;1;579;10985;0;2;0;3;0;0;0;0;3;0;6;0;0;0;0;4;0;0;0;0;0;0;5;0;71;2;0;0;0;0;0;6;0;5;2;0;0;0;0;0;7;0;831;0;0;0;0;8;0;1201;0;0;0;0;9;0;887;0;0;0;0
30.12.17;17:40:00;1;600;10938;0;2;0;3;0;0;0;0;3;0;6;0;0;0;0;4;0;0;0;0;0;0;5;0;71;2;0;0;0;0;0;6;0;5;2;0;0;0;0;0;7;0;831;0;0;0;0;8;0;1201;0;0;0;0;9;0;887;0;0;0;0
30.12.17;17:35:00;1;1036;10887;0;2;0;3;0;0;0;0;3;0;6;0;0;0;0;4;0;0;0;0;0;0;5;0;71;2;0;0;0;0;0;6;0;5;2;0;0;0;0;0;7;0;831;0;0;0;0;8;0;1201;0;0;0;0;9;0;887;0;0;0;0
30.12.17;17:30:00;1;674;10803;0;2;0;3;0;0;0;0;3;0;6;0;0;0;0;4;0;0;0;0;0;0;5;0;71;2;0;0;0;0;0;6;0;5;2;0;0;0;0;0;7;0;831;0;0;0;0;8;0;1201;0;0;0;0;9;0;887;0;0;0;0
30.12.17;17:25:00;1;1363;10748;0;2;0;3;0;0;0;0;3;0;6;0;0;0;0;4;0;0;0;0;0;0;5;0;71;2;0;0;0;0;0;6;0;5;2;0;0;0;0;0;7;0;831;0;0;0;0;8;0;1201;0;0;0;0;9;0;887;0;0;0;0
30.12.17;17:20:00;1;1175;10651;0;2;0;3;0;0;0;0;3;0;6;0;0;0;0;4;0;0;0;0;0;0;5;0;71;2;0;0;0;0;0;6;0;5;2;0;0;0;0;0;7;0;831;0;0;0;0;8;0;1201;0;0;0;0;9;0;887;0;0;0;0
30.12.17;17:15:00;1;3989;10458;0;2;0;3;0;0;0;0;3;0;6;0;0;0;0;4;0;0;0;0;0;0;5;0;71;2;0;0;0;0;0;6;0;5;2;0;0;0;0;0;7;0;831;0;0;0;0;8;0;1201;0;0;0;0;9;0;887;0;0;0;0
30.12.17;17:10:00;1;2323;10080;0;2;0;3;0;0;0;0;3;0;6;0;0;0;0;4;0;0;0;0;0;0;5;0;71;2;0;0;0;0;0;6;0;5;2;0;0;0;0;0;7;0;831;0;0;0;0;8;0;1201;0;0;0;0;9;0;887;0;0;0;0
30.12.17;17:05:00;1;2343;9883;0;2;0;3;0;0;0;0;3;0;6;0;0;0;0;4;0;0;0;0;0;0;5;0;71;2;0;0;0;0;0;6;0;5;2;0;0;0;0;0;7;0;831;0;0;0;0;8;0;1201;0;0;0;0;9;0;887;0;0;0;0
30.12.17;17:00:00;1;2935;9683;0;2;0;3;0;0;0;0;3;0;6;0;0;0;0;4;0;0;0;0;0;0;5;0;71;2;0;0;0;0;0;6;0;5;2;0;0;0;0;0;7;0;831;0;0;0;0;8;0;1201;0;0;0;0;9;0;887;0;0;0;0
30.12.17;16:55:00;1;2130;9461;0;2;0;3;0;0;0;0;3;0;6;0;0;0;0;4;0;0;0;0;0;0;5;0;71;2;0;0;0;0;0;6;0;5;2;0;0;0;0;0;7;0;831;0;0;0;0;8;0;1201;0;0;0;0;9;0;887;0;0;0;0
30.12.17;16:50:00;1;819;9277;0;2;0;3;0;0;0;0;3;0;6;0;0;0;0;4;0;0;0;0;0;0;5;0;71;2;0;0;0;0;0;6;0;5;2;0;0;0;0;0;7;0;831;0;0;0;0;8;0;1201;0;0;0;0;9;0;887;0;0;0;0
30.12.17;16:45:00;1;958;9214;0;2;0;3;0;0;0;0;3;0;6;0;0;0;0;4;0;0;0;0;0;0;5;0;71;2;0;0;0;0;0;6;0;5;2;0;0;0;0;0;7;0;831;0;0;0;0;8;0;1201;0;0;0;0;9;0;887;0;0;0;0
30.12.17;16:40:00;1;699;9130;0;2;0;3;0;0;0;0;3;0;6;0;0;0;0;4;0;0;0;0;0;0;5;0;71;2;0;0;0;0;0;6;0;5;2;0;0;0;0;0;7;0;831;0;0;0;0;8;0;1201;0;0;0;0;9;0;887;0;0;0;0
30.12.17;16:35:00;1;543;9075;0;2;0;3;0;0;0;0;3;0;6;0;0;0;0;4;0;0;0;0;0;0;5;0;71;2;0;0;0;0;0;6;0;5;2;0;0;0;0;0;7;0;831;0;0;0;0;8;0;1201;0;0;0;0;9;0;887;0;0;0;0
30.12.17;16:30:00;1;561;9033;0;2;0;3;0;0;0;0;3;0;6;0;0;35;1;4;0;0;0;0;0;0;5;0;71;2;0;0;0;0;0;6;0;5;2;0;0;0;0;0;7;0;831;0;0;0;0;8;0;1201;0;0;0;0;9;0;887;0;0;0;0
30.12.17;16:25:00;1;344;8969;0;2;0;3;0;0;0;0;3;0;6;6;0;270;10;4;0;0;0;0;0;0;5;0;71;2;0;0;0;0;0;6;0;5;2;0;0;0;0;0;7;0;831;0;0;0;0;8;0;1201;0;0;0;0;9;0;887;0;0;0;0
30.12.17;16:20:00;1;369;8939;0;2;0;3;0;0;0;0;3;0;6;6;0;294;10;4;0;0;0;0;32;1;5;0;71;2;0;0;0;0;0;6;0;5;2;0;0;0;0;0;7;0;831;0;0;0;0;8;0;1201;0;0;0;0;9;0;887;0;0;0;0
30.12.17;16:15:00;1;546;8908;0;2;0;3;0;0;222;6;3;0;6;6;0;325;10;4;0;0;2;0;90;3;5;0;71;2;0;0;0;0;0;6;0;5;2;0;0;0;0;0;7;0;831;0;0;0;0;8;0;1201;0;0;0;0;9;0;887;0;0;0;0
30.12.17;16:10:00;1;613;8851;0;2;0;3;6;0;262;7;3;0;6;6;0;334;11;4;0;0;1;0;96;3;5;0;71;2;0;0;0;0;0;6;0;5;2;0;0;0;0;0;7;0;831;0;0;0;0;8;0;1201;0;0;0;0;9;0;887;0;0;209;5
30.12.17;16:05:00;1;359;8819;0;2;0;3;6;0;271;7;3;0;6;6;0;343;11;4;0;0;1;0;100;3;5;0;71;2;0;0;0;0;0;6;0;5;2;0;0;0;0;0;7;0;831;0;0;0;0;8;0;1201;0;0;0;0;9;0;887;6;0;254;7
30.12.17;16:00:00;1;359;8790;0;2;0;3;6;0;294;7;3;0;6;6;0;387;11;4;0;0;1;0;127;3;5;0;71;2;0;0;0;0;0;6;0;5;2;0;0;0;0;0;7;0;831;6;0;288;10;8;0;1201;6;0;294;10;9;0;887;6;0;309;7
30.12.17;15:55:00;1;672;8759;0;2;0;3;6;0;302;7;3;0;6;6;0;410;11;4;0;0;1;0;156;3;5;0;71;2;0;0;0;0;0;6;0;5;2;0;0;0;0;0;7;0;831;6;0;351;11;8;0;1201;6;0;360;10;9;0;887;6;0;379;7
30.12.17;15:50:00;1;371;8695;0;2;0;3;6;0;294;7;3;0;6;6;0;392;11;4;0;0;1;0;135;3;5;0;71;2;0;0;0;0;0;6;0;5;1;0;0;0;0;0;7;0;831;6;0;311;11;8;0;1201;6;0;320;11;9;0;887;6;0;332;7
30.12.17;15:45:00;1;366;8662;0;2;0;3;6;0;303;7;3;0;6;6;0;399;11;4;0;0;1;0;152;3;5;0;71;2;0;0;0;0;0;6;0;5;2;0;0;0;0;0;7;0;831;6;0;332;11;8;0;1201;6;0;339;11;9;0;887;6;0;354;7
30.12.17;15:40:00;1;656;8630;0;2;0;3;6;0;333;7;3;0;6;6;2;429;11;4;0;0;1;0;188;3;5;0;71;2;0;0;0;0;0;6;0;5;0;0;0;0;0;0;7;0;831;6;0;400;11;8;0;1201;6;0;405;11;9;0;887;6;0;428;8
30.12.17;15:35:00;1;660;8571;0;2;0;3;6;0;359;7;3;0;6;6;1;461;11;4;0;0;1;0;208;4;5;0;71;2;0;0;0;0;0;6;0;5;2;0;0;0;0;2;7;0;831;6;1;441;11;8;0;1201;6;1;438;11;9;0;886;6;1;482;8
30.12.17;15:30:00;1;2182;8503;0;2;0;3;6;0;380;7;3;0;6;6;2;496;11;4;0;0;1;0;223;4;5;0;71;2;0;0;0;0;0;6;0;5;1;2;0;11;10;8;7;6;831;6;10;441;12;8;0;1201;6;5;471;12;9;0;886;6;0;542;8
30.12.17;15:25:00;1;4039;8323;0;2;0;3;6;0;401;7;3;0;6;6;2;526;11;4;0;0;1;0;221;4;5;0;71;1;0;1;131;130;6;6;0;5;23;17;7;451;202;12;7;37;831;6;46;407;12;8;34;1201;6;55;445;12;9;5;886;3;13;523;8
30.12.17;15:20:00;1;3338;7954;0;2;0;3;6;0;412;7;3;2;6;4;3;529;11;4;0;0;3;0;226;4;5;0;71;2;0;0;250;283;13;6;0;5;23;4;4;241;464;12;7;59;828;4;94;419;12;8;65;1198;4;102;444;12;9;9;886;6;14;554;8
30.12.17;15:15:00;1;1962;7700;0;2;0;3;4;0;404;7;3;1;6;3;6;506;11;4;0;0;3;0;222;4;5;0;71;23;0;0;319;316;13;6;0;5;23;6;5;179;339;12;7;84;823;4;111;439;12;8;91;1192;4;129;453;12;9;8;885;6;12;564;8
30.12.17;15:10:00;1;794;7544;0;2;0;3;6;0;407;7;3;1;5;6;3;528;11;4;0;0;3;0;214;4;5;0;71;2;0;2;223;220;11;6;0;5;23;11;9;179;423;12;7;62;816;4;89;403;12;8;74;1185;4;97;430;12;9;7;884;6;10;553;8
30.12.17;15:05:00;1;527;7468;0;2;0;3;6;0;406;7;3;1;5;6;3;543;11;4;0;0;3;0;222;4;5;0;71;26;0;0;291;288;14;6;0;5;23;14;8;470;300;12;7;96;811;4;125;396;12;8;105;1179;4;138;456;12;9;40;884;6;58;397;8
30.12.17;15:00:00;1;607;7424;0;2;0;3;6;0;401;7;3;1;5;6;8;509;11;4;0;0;3;0;238;4;5;0;71;26;0;1;367;396;14;6;0;5;23;17;7;560;181;12;7;122;803;4;143;387;12;8;127;1170;4;166;450;12;9;65;881;4;86;433;9
30.12.17;14:55:00;1;513;7373;0;2;0;3;6;1;402;7;3;0;5;6;3;550;11;4;0;0;3;0;224;4;5;0;71;23;0;1;381;381;14;6;0;5;23;12;9;308;450;12;7;130;793;4;158;377;12;8;152;1160;4;182;461;12;9;74;875;4;97;448;9
30.12.17;14:50:00;1;604;7323;0;2;0;3;6;0;426;7;3;0;5;6;0;559;11;4;0;0;3;0;220;4;5;0;71;26;0;1;385;383;14;6;0;5;23;8;8;181;571;12;7;161;782;4;195;421;12;8;177;1147;4;215;482;12;9;93;869;4;117;467;9
30.12.17;14:45:00;1;190;7275;0;2;0;3;4;0;411;7;3;1;5;3;7;529;11;4;0;0;3;0;214;3;5;0;71;23;0;2;388;427;14;6;0;5;23;4;2;440;310;12;7;147;768;4;191;450;12;8;176;1132;4;219;473;12;9;92;861;4;116;463;9
30.12.17;14:40:00;1;191;7260;0;2;0;3;3;1;395;7;3;2;5;6;6;513;11;4;0;0;3;0;216;3;5;0;71;26;0;1;382;426;14;6;0;5;23;7;7;258;482;12;7;127;756;4;171;410;12;8;166;1118;4;198;455;12;9;81;854;4;104;449;9
30.12.17;14:35:00;1;892;7244;0;2;0;3;6;0;417;7;3;0;5;6;2;551;11;4;0;0;3;0;222;3;5;0;71;23;0;2;385;383;14;6;0;5;23;5;3;439;306;12;7;138;745;4;178;407;12;8;165;1104;4;202;474;12;9;83;847;4;107;449;9
30.12.17;14:30:00;1;191;7197;0;2;0;3;3;1;398;7;3;1;5;6;4;537;11;4;0;0;3;0;228;3;5;0;71;26;0;3;405;443;14;6;0;5;23;8;8;271;503;12;7;218;734;4;248;429;12;8;255;1090;4;291;471;12;9;126;840;4;152;462;9
30.12.17;14:25:00;1;191;7181;0;2;0;3;6;1;413;7;3;1;5;6;3;562;11;4;0;0;3;0;223;3;5;0;71;26;0;4;404;402;14;6;0;5;23;5;5;181;583;12;7;223;716;4;265;431;11;8;278;1069;4;310;469;12;9;136;830;4;162;480;9
30.12.17;14:20:00;1;556;7165;0;2;0;3;6;0;412;7;3;0;5;6;0;589;11;4;0;0;3;0;218;3;5;0;71;26;0;3;407;453;14;6;0;5;23;11;9;238;583;12;7;233;697;4;266;459;11;8;277;1046;4;320;490;12;9;147;818;4;177;459;9
30.12.17;14:15:00;1;191;7119;0;2;0;3;6;0;410;7;3;1;5;3;7;537;11;4;0;0;3;0;211;3;5;0;71;26;0;3;403;442;14;6;0;5;23;5;6;181;577;12;7;211;677;4;246;446;11;8;266;1023;4;303;469;12;9;132;806;4;161;443;9
30.12.17;14:10:00;1;201;7103;0;2;0;3;6;1;397;7;3;2;4;6;4;534;11;4;1;0;3;1;224;3;5;0;71;23;0;3;407;478;14;6;0;5;23;3;3;181;580;12;7;240;660;4;273;440;11;8;287;1001;4;325;484;11;9;146;795;4;175;447;9
30.12.17;14:05:00;1;472;7086;0;2;0;3;6;0;410;7;3;0;4;6;2;551;11;4;0;0;3;0;223;3;5;0;71;23;0;1;379;409;14;6;0;5;23;3;3;181;558;12;7;179;640;4;200;442;11;8;211;977;4;246;465;11;9;106;783;4;131;463;9
30.12.17;14:00:00;1;238;7036;0;2;0;3;6;0;401;7;3;0;4;6;2;524;11;4;0;0;3;0;213;3;5;0;71;8;0;0;325;323;14;6;0;5;23;11;5;387;326;12;7;125;625;4;159;424;11;8;159;959;4;186;468;11;9;83;774;4;107;446;9
30.12.17;13:55:00;1;231;7016;0;2;0;3;6;0;394;7;3;1;4;6;4;521;11;4;0;0;1;0;227;3;5;0;71;23;0;1;372;369;14;6;0;5;23;1;1;295;428;12;7;141;615;4;168;391;11;8;167;946;4;201;441;11;9;84;767;4;110;441;9
30.12.17;13:50:00;1;193;6997;0;2;0;3;6;0;417;7;3;0;4;6;0;584;11;4;0;0;3;0;207;3;5;0;71;23;0;2;403;500;14;6;0;5;23;10;10;181;574;12;7;205;603;4;236;413;11;8;253;932;4;287;467;11;9;134;760;4;161;433;9
30.12.17;13:45:00;1;667;6981;0;2;0;3;3;0;406;7;3;1;4;4;6;533;11;4;0;0;3;0;219;3;5;0;71;23;0;3;400;415;14;6;0;5;23;10;9;208;573;12;7;200;586;4;229;413;11;8;251;911;4;285;456;11;9;131;749;4;158;445;9
30.12.17;13:40:00;1;192;6935;0;2;0;3;3;1;393;7;3;1;4;6;3;543;11;4;0;0;3;0;226;3;5;0;71;26;0;2;409;476;14;6;0;5;23;9;9;181;574;12;7;204;569;4;231;416;11;8;250;890;4;286;452;11;9;134;738;4;164;451;9
30.12.17;13:35:00;1;193;6918;0;2;1;3;6;1;417;7;3;2;4;6;7;541;11;4;0;0;3;0;227;3;5;0;71;26;0;2;427;611;14;6;0;5;23;5;4;182;597;12;7;330;552;4;356;380;11;8;409;870;4;447;440;11;9;225;727;4;257;449;9
30.12.17;13:30:00;1;502;6902;0;2;1;3;6;2;417;7;3;0;4;6;4;564;11;4;0;0;3;0;224;3;5;8;71;4;1;6;416;636;14;6;0;5;23;7;6;182;599;12;7;357;525;4;391;391;11;8;462;836;4;500;457;11;9;259;709;4;290;447;9
30.12.17;13:25:00;1;1102;6853;0;2;1;3;6;3;404;7;3;0;4;6;2;537;11;4;0;0;3;0;217;3;5;6;71;4;1;6;412;534;14;6;0;5;23;6;6;182;593;12;7;301;495;4;333;392;11;8;395;797;4;426;451;11;9;221;687;4;252;435;9
30.12.17;13:20:00;1;2075;6733;0;2;1;3;6;2;414;7;3;0;4;6;0;590;11;4;0;0;3;0;230;3;5;37;70;1;3;7;407;632;14;6;0;5;23;3;3;182;598;12;7;320;470;4;346;362;11;8;416;764;4;445;438;11;9;236;668;4;267;427;9
30.12.17;13:15:00;1;734;6593;0;2;1;2;6;1;421;7;3;0;4;4;7;541;11;4;0;0;3;0;227;3;5;10;69;1;1;7;418;637;14;6;0;5;23;5;5;182;601;12;7;337;443;4;369;374;11;8;462;730;4;494;431;11;9;268;649;4;299;431;9
30.12.17;13:10:00;1;293;6542;0;2;1;2;4;2;420;7;3;0;4;3;4;565;11;4;0;0;3;0;243;3;5;8;69;1;2;5;418;645;14;6;0;5;23;4;4;201;602;12;7;338;415;4;372;373;11;8;472;691;4;509;440;11;9;280;627;4;311;413;9
30.12.17;13:05:00;1;300;6517;0;2;1;2;3;3;405;7;3;1;4;6;3;540;11;4;0;0;3;0;224;3;5;5;68;1;1;4;417;628;14;6;0;5;23;5;5;182;596;12;7;298;387;4;324;399;11;8;409;652;4;446;414;11;9;248;603;4;278;411;9
30.12.17;13:00:00;1;411;6492;0;2;0;2;6;2;413;7;3;0;3;6;3;558;11;4;0;0;3;0;219;2;5;7;67;1;1;4;412;635;14;6;0;5;23;5;4;201;594;12;7;253;362;4;290;396;11;8;381;618;4;412;397;11;9;229;582;4;261;411;9
30.12.17;12:55:00;1;428;6443;0;2;1;2;6;1;420;7;3;1;3;6;3;568;11;4;0;0;3;0;217;2;5;7;67;1;2;4;421;659;14;6;0;5;23;5;5;182;600;12;7;286;341;4;318;387;11;8;438;586;4;467;414;11;9;270;563;4;300;411;9
30.12.17;12:50:00;1;194;6420;0;2;1;2;6;2;417;7;3;0;3;6;0;594;11;4;0;0;3;0;232;2;5;9;66;26;2;5;420;651;14;6;0;5;23;6;5;184;603;12;7;295;317;4;324;394;11;8;452;550;4;489;413;11;9;285;541;4;317;393;9
30.12.17;12:45:00;1;192;6403;0;2;2;2;6;4;407;7;3;3;3;4;6;535;11;4;0;0;3;0;235;2;5;12;66;26;2;8;419;646;14;6;0;5;23;5;4;305;603;12;7;284;293;4;316;379;11;8;456;512;4;496;429;11;9;294;517;4;326;391;8
30.12.17;12:40:00;1;479;6387;0;2;0;2;6;0;435;7;3;3;3;3;8;536;11;4;0;0;3;0;237;2;5;10;65;26;3;7;423;661;14;6;0;5;8;6;4;415;605;12;7;294;269;4;316;367;10;8;468;474;4;503;437;10;9;316;493;4;352;401;8
30.12.17;12:35:00;1;192;6342;0;2;3;2;4;5;410;7;3;1;3;6;3;572;11;4;0;0;3;0;224;2;5;9;64;26;3;8;428;680;14;6;0;5;23;7;4;454;608;12;7;296;244;4;321;359;10;8;487;435;4;530;433;10;9;354;466;4;387;390;8